Wind_Speed
21 21 21 22 21 21 21 19 17 17 20 22 20 19 18 17 16 17 17 18 20 20 22 20 20 20 20 18 18 19 18 16 16 13 11 11 9 8
26 25 26 27 26 24 23 21 19 17 17 21 21 20 20 19 19 19 20 21 21 21 21 21 21 21 21 21 18 19 17 17 17 15 13 13 11 9
32 31 31 31 29 29 28 25 24 21 17 23 22 21 23 21 22 24 25 25 23 21 21 22 21 21 21 21 19 19 20 16 17 16 16 16 15 13
38 38 36 37 34 33 32 31 28 27 23 22 25 25 25 25 24 25 27 27 24 22 21 22 21 20 22 22 21 21 21 20 13 19 18 17 17 17
41 40 39 41 38 37 36 35 33 32 29 27 26 29 30 30 28 28 28 28 28 22 23 23 23 25 25 25 24 21 21 22 20 18 17 18 18 19
43 42 42 43 42 41 40 39 38 37 36 33 30 31 34 35 31 30 29 28 28 23 26 27 23 28 27 25 26 25 23 23 21 20 19 19 19 19
44 43 42 42 43 43 43 42 42 41 40 37 33 33 34 35 32 33 29 28 25 27 25 28 25 27 27 28 29 29 26 24 22 21 20 20 20 19
49 48 47 47 46 46 47 47 46 43 39 38 36 34 35 35 32 31 27 27 31 32 25 31 29 25 28 30 28 31 27 25 22 22 20 20 20 19
57 55 54 52 51 52 50 47 45 43 41 41 38 36 36 39 36 35 35 32 31 30 27 28 28 29 31 31 34 33 28 25 21 20 20 22 21 19
58 58 59 56 55 53 52 49 45 45 44 45 44 40 41 40 39 37 36 37 34 33 30 29 30 31 31 31 34 33 29 26 23 22 20 22 24 22
51 69 56 56 58 54 55 53 50 47 49 48 47 45 44 43 41 42 38 40 37 37 36 32 32 33 31 34 30 32 29 28 26 21 25 22 24 21
66 64 47 61 58 60 56 56 54 50 54 54 54 47 47 46 43 46 45 44 42 40 42 40 37 33 33 30 31 29 26 25 28 27 23 22 23 25
62 63 67 54 55 63 60 51 48 58 55 45 51 51 47 38 34 39 44 45 45 45 43 42 38 33 34 27 24 25 26 27 23 28 24 24 24 26
46 50 47 49 41 49 45 43 37 35 39 45 45 47 48 42 40 36 45 43 44 50 42 38 36 37 35 34 30 26 28 28 29 27 26 29 28 29
43 41 38 37 36 27 24 31 30 32 38 40 30 29 31 34 39 37 27 28 38 41 38 42 38 36 37 40 37 33 29 29 26 27 28 25 29 33
39 39 38 31 28 27 28 28 29 33 36 40 44 40 39 42 39 39 34 35 34 32 35 40 34 35 42 43 39 35 35 34 32 30 34 34 35 33
38 37 34 33 32 31 31 31 33 34 38 42 44 45 43 44 44 46 41 34 34 39 41 41 38 41 44 37 36 37 38 40 37 34 33 34 34 34
37 36 34 31 34 37 38 39 38 40 42 41 42 42 40 43 46 46 47 42 38 42 44 42 38 42 40 41 39 40 40 43 42 40 38 39 39 39
39 39 34 35 42 43 41 39 39 41 43 47 43 43 43 45 48 48 46 47 42 45 49 41 37 47 43 44 48 47 40 46 45 45 47 44 39 36
43 44 44 43 44 43 43 41 41 43 44 46 47 50 52 51 47 48 48 38 41 41 49 47 49 49 42 45 49 52 54 47 38 43 38 37 39 38
44 46 47 46 44 43 42 42 42 44 44 42 38 35 34 33 35 36 33 39 39 44 59 58 45 46 42 43 44 47 51 47 45 47 44 41 42 45
47 48 51 49 46 41 40 40 36 35 34 34 30 35 33 37 37 37 37 46 46 52 55 51 42 37 40 42 40 38 38 37 39 41 43 45 45 45
42 42 42 43 43 41 33 36 35 37 36 37 36 38 35 37 43 46 42 47 52 49 43 41 45 47 48 48 47 45 46 49 49 50 56 52 50 48
Wind_Direction
273 278 279 280 286 293 291 293 294 297 300 297 296 296 292 295 305 313 314 315 319 325 324 314 311 313 311 310 316 318 315 306 302 291 267 267 290 289
267 274 277 279 282 287 287 287 288 287 295 297 299 299 297 298 302 302 305 309 318 322 314 313 314 311 309 309 311 314 318 310 306 277 283 261 263 266
266 268 271 273 275 278 283 287 287 286 284 291 292 293 296 300 300 301 305 308 312 311 315 316 313 310 307 303 300 310 316 305 305 288 276 272 257 264
262 266 268 272 271 270 273 278 283 286 285 281 286 288 289 291 293 297 301 301 304 308 313 315 315 310 314 311 296 297 309 311 298 293 281 270 261 258
255 259 264 267 268 268 267 272 276 279 282 282 280 283 284 287 291 294 295 297 297 301 300 311 319 310 309 311 305 295 293 299 292 288 275 270 271 265
251 255 259 263 265 265 265 267 271 274 276 277 276 277 281 286 289 291 292 298 297 299 296 302 316 311 309 310 310 301 287 290 286 280 269 268 272 276
247 248 252 257 260 262 263 265 266 268 271 273 274 274 278 284 286 295 286 297 303 302 308 304 317 312 307 305 304 300 287 288 283 277 273 271 268 273
255 254 252 253 254 256 259 260 261 265 269 272 273 275 278 281 282 283 284 287 292 300 304 304 307 308 310 313 306 303 289 285 284 276 273 269 270 279
253 252 251 253 254 255 257 258 262 265 267 270 274 275 274 277 278 279 278 284 284 288 296 299 302 304 311 305 302 300 290 282 276 277 268 272 266 272
251 250 253 252 253 255 257 259 262 266 271 273 273 270 269 269 274 277 277 280 282 285 287 293 298 305 309 304 305 295 286 276 272 266 264 265 262 267
268 249 251 254 257 258 262 263 258 260 264 266 268 269 268 270 273 275 274 273 276 283 287 287 292 300 303 307 300 298 286 273 270 268 266 256 254 266
269 279 278 258 254 260 257 260 264 263 261 266 264 264 267 267 269 271 266 271 275 277 283 286 289 289 296 300 297 292 287 268 269 266 259 256 264 262
269 277 275 284 281 263 259 254 260 264 269 272 263 261 258 272 276 275 265 264 269 273 274 280 284 285 293 286 290 288 286 276 262 270 260 255 257 258
271 274 278 282 278 282 284 269 277 284 283 292 287 249 265 259 278 277 275 265 270 267 267 268 279 281 281 279 285 280 273 270 269 262 256 251 250 258
269 274 276 280 288 289 281 264 265 269 273 271 269 252 271 265 262 265 270 275 271 263 258 266 269 272 274 276 279 277 266 264 259 252 246 248 244 244
262 265 268 272 279 273 272 268 264 259 254 251 257 263 250 254 256 256 260 267 253 250 254 260 269 270 272 273 271 267 264 260 257 252 252 255 253 252
259 257 262 266 267 266 266 269 270 271 271 268 260 253 248 251 245 247 249 251 241 241 252 259 261 265 269 264 269 267 265 263 259 255 252 253 256 261
256 257 255 262 264 269 270 271 268 266 262 263 257 257 255 251 256 256 252 251 242 244 255 257 262 259 255 263 262 265 273 267 256 255 254 259 264 267
252 252 259 263 269 274 273 271 267 266 265 261 261 260 259 264 262 256 250 253 251 247 246 255 261 253 266 265 262 259 269 269 261 258 257 257 259 260
252 256 261 263 267 268 269 270 269 268 266 263 261 261 262 265 264 262 262 258 250 251 251 261 255 261 267 269 260 259 265 268 262 270 262 261 261 258
256 259 262 266 264 267 268 269 269 268 267 268 267 258 261 266 258 261 241 234 240 234 236 241 249 255 256 261 262 263 259 260 259 260 256 253 254 263
258 260 264 266 268 263 267 264 261 259 258 263 258 252 257 244 251 241 237 229 232 232 236 244 257 259 256 258 258 256 256 255 253 250 255 265 272 277
261 269 268 262 261 262 255 262 263 266 258 253 252 253 248 256 251 254 255 247 250 260 261 270 267 262 260 256 262 260 264 268 272 275 279 288 293 294
Height
5933 5933 5932 5931 5931 5930 5930 5929 5929 5927 5924 5921 5920 5920 5920 5920 5920 5918 5917 5914 5912 5910 5907 5906 5903 5900 5897 5895 5892 5891 5888 5885 5884 5881 5880 5881 5881 5881
5927 5926 5926 5924 5924 5925 5924 5924 5924 5924 5921 5917 5915 5915 5914 5914 5914 5912 5910 5908 5906 5904 5903 5900 5898 5896 5893 5891 5888 5887 5884 5882 5880 5879 5879 5878 5878 5878
5921 5921 5920 5918 5918 5917 5917 5917 5917 5917 5918 5913 5913 5910 5908 5908 5907 5905 5903 5901 5900 5900 5897 5894 5892 5890 5888 5886 5885 5882 5880 5879 5878 5876 5876 5875 5875 5875
5913 5913 5913 5911 5911 5909 5908 5908 5909 5909 5910 5910 5907 5906 5904 5903 5902 5899 5898 5896 5896 5894 5891 5890 5887 5884 5883 5881 5879 5878 5876 5874 5873 5872 5872 5871 5870 5871
5901 5903 5904 5902 5903 5902 5900 5899 5898 5899 5900 5902 5901 5899 5897 5896 5896 5894 5892 5890 5890 5888 5886 5884 5882 5880 5878 5875 5873 5872 5870 5869 5867 5866 5866 5866 5865 5866
5889 5891 5893 5893 5893 5892 5891 5891 5890 5890 5890 5891 5893 5891 5889 5888 5888 5887 5885 5883 5882 5882 5880 5878 5876 5874 5872 5870 5868 5866 5864 5862 5861 5861 5860 5860 5861 5861
5878 5879 5880 5880 5881 5881 5881 5882 5881 5880 5880 5881 5882 5882 5881 5880 5880 5879 5879 5876 5873 5874 5873 5870 5870 5867 5866 5864 5863 5860 5858 5856 5854 5855 5855 5855 5855 5855
5869 5870 5871 5869 5869 5869 5868 5869 5869 5871 5873 5872 5873 5873 5873 5872 5872 5872 5871 5870 5869 5865 5866 5862 5863 5861 5859 5856 5854 5853 5852 5850 5848 5848 5849 5849 5849 5849
5850 5851 5853 5856 5857 5857 5858 5859 5862 5863 5864 5864 5865 5866 5863 5862 5862 5862 5862 5863 5861 5859 5858 5856 5854 5853 5851 5849 5846 5844 5843 5843 5842 5842 5842 5843 5842 5841
5833 5834 5838 5842 5843 5845 5848 5850 5852 5854 5856 5854 5855 5856 5853 5852 5852 5852 5853 5851 5852 5850 5849 5848 5845 5843 5842 5841 5839 5836 5835 5835 5834 5834 5834 5835 5834 5834
5817 5819 5825 5829 5833 5835 5837 5840 5838 5841 5841 5841 5841 5844 5844 5844 5842 5841 5843 5841 5841 5840 5839 5840 5838 5835 5834 5832 5830 5829 5826 5826 5827 5828 5827 5828 5826 5827
5812 5809 5815 5818 5819 5822 5822 5823 5825 5829 5826 5826 5827 5830 5832 5832 5831 5831 5831 5831 5831 5832 5828 5831 5830 5827 5826 5824 5822 5821 5819 5818 5819 5820 5819 5820 5821 5820
5800 5800 5803 5804 5804 5807 5812 5806 5810 5811 5809 5811 5814 5817 5817 5821 5820 5818 5820 5820 5820 5820 5819 5819 5819 5818 5816 5816 5814 5813 5812 5811 5812 5811 5812 5813 5813 5812
5789 5788 5787 5788 5791 5793 5794 5797 5792 5797 5798 5801 5801 5803 5806 5808 5810 5808 5806 5806 5806 5807 5807 5807 5809 5809 5807 5806 5806 5804 5802 5802 5803 5803 5803 5803 5804 5803
5776 5777 5777 5777 5774 5774 5779 5783 5780 5781 5786 5788 5786 5790 5793 5794 5794 5795 5793 5793 5793 5794 5795 5795 5796 5796 5796 5795 5795 5795 5793 5791 5791 5794 5794 5793 5793 5793
5767 5768 5768 5767 5768 5768 5769 5769 5769 5769 5770 5771 5774 5777 5777 5779 5780 5781 5782 5781 5781 5783 5784 5784 5784 5782 5782 5783 5783 5783 5783 5784 5783 5783 5784 5784 5784 5783
5754 5756 5758 5759 5759 5759 5759 5760 5760 5759 5759 5759 5760 5761 5762 5764 5765 5766 5768 5767 5769 5771 5772 5773 5773 5771 5770 5772 5773 5773 5773 5773 5774 5774 5774 5774 5775 5775
5742 5745 5747 5748 5748 5748 5748 5748 5749 5748 5748 5748 5748 5748 5749 5752 5753 5753 5754 5757 5758 5759 5761 5761 5761 5759 5758 5759 5760 5760 5761 5761 5760 5761 5761 5761 5761 5762
5731 5732 5733 5735 5735 5735 5736 5738 5737 5737 5736 5735 5735 5737 5738 5739 5740 5742 5742 5744 5744 5745 5748 5749 5749 5748 5747 5746 5747 5748 5747 5747 5747 5748 5748 5747 5748 5749
5719 5720 5720 5721 5722 5723 5724 5724 5723 5723 5722 5722 5723 5724 5724 5726 5725 5726 5729 5731 5733 5735 5733 5736 5736 5734 5733 5733 5734 5734 5734 5734 5734 5735 5736 5737 5737 5737
5705 5706 5706 5708 5709 5709 5710 5710 5710 5710 5710 5709 5709 5711 5710 5711 5712 5713 5716 5717 5715 5717 5722 5718 5719 5720 5719 5719 5719 5720 5721 5720 5720 5721 5722 5724 5724 5723
5691 5692 5692 5694 5696 5696 5696 5696 5696 5696 5696 5697 5698 5699 5699 5701 5702 5703 5703 5704 5705 5704 5705 5704 5703 5704 5706 5706 5706 5707 5708 5708 5707 5707 5708 5709 5709 5707
5677 5677 5678 5679 5681 5682 5683 5683 5684 5684 5684 5684 5686 5687 5687 5689 5689 5690 5692 5691 5690 5689 5688 5688 5690 5693 5695 5695 5695 5695 5694 5693 5692 5692 5691 5689 5689 5688